Regional Weather Roundup
Issued by NWS Upton, NY

Current Version | Previous Version | Graphics & Text | Print | Product List | Glossary Off
Versions: 1 2 3 4 5 6 7 8 9 10 11 12 13 14 15 16 17 18 19 20 21 22 23 24 25 26 27 28

000
ASUS41 KOKX 190408
RWROKX

REGIONAL WEATHER ROUNDUP
NATIONAL WEATHER SERVICE NEW YORK NY
1100 PM EST WED JAN 18 2017

NOTE: "FAIR" INDICATES FEW OR NO CLOUDS BELOW 12,000 FEET WITH NO
SIGNIFICANT WEATHER AND/OR OBSTRUCTIONS TO VISIBILITY.

NYZ071-072-176-178-NJZ106-104-190500-
NEW YORK CITY METRO AREA

CITY           SKY/WX    TMP DP  RH WIND       PRES   REMARKS
Central Park   CLOUDY    40  36  86 CALM      30.05S
Wall St Helipt CLOUDY    41  37  86 CALM      30.04F
Bronx Bot Gard NOT AVBL
LaGuardia APRT CLOUDY    42  36  79 N7        30.02S
Kennedy INTL   CLOUDY    41  35  79 N12       30.04R
Breezy Point   NOT AVBL
Newark/Liberty MOCLDY    41  36  82 N6        30.03F
Teterboro      DRIZZLE   40  36  86 CALM      30.03S
$$

NYZ177-179-078>081-190500-
LONG ISLAND NEW YORK

CITY           SKY/WX    TMP DP  RH WIND       PRES   REMARKS
Jones Beach    NOT AVBL
Matinecock PT  NOT AVBL
Farmingdale    CLOUDY    40  36  86 N5        30.03R
MacArthur/ISP  CLOUDY    38  37  97 N8        30.02R WCI  32
Shirley        CLOUDY    37  36  96 NW7       30.02R WCI  32
Westhampton    CLOUDY    38  36  92 N7        30.02S WCI  33
Southampton    NOT AVBL
Bridgehampton  NOT AVBL
East Hampton   CLOUDY    37  36  94 N5        30.00R WCI  33
Montauk          N/A     39  39 100 N8        30.00R WCI  33
$$

NYZ052-065-067-190500-
HUDSON VALLEY

CITY           SKY/WX    TMP DP  RH WIND       PRES   REMARKS
White Plains   MOCLDY    37  35  92 NW5       30.00F WCI  33
Newburgh       CLOUDY    36  36 100 CALM      30.03S FOG
Montgomery     FOG       34  33  96 CALM      30.01S VSB 1/2
Poughkeepsie   FOG       35  35 100 CALM      30.02S VSB 1/2
Albany         DRIZZLE   36  34  92 S6        30.01F FOG     WCI  31
$$

NJZ001-105-106-008-010-013-015-019>022-104-190500-
NEW JERSEY

CITY           SKY/WX    TMP DP  RH WIND       PRES   REMARKS
Newark/Liberty MOCLDY    41  36  82 N6        30.03F
Teterboro      DRIZZLE   40  36  86 CALM      30.03S
Caldwell       CLOUDY    38  36  92 CALM      30.03F
Somerville     CLOUDY    39  36  89 CALM      30.01F
Linden         CLOUDY    40  36  84 CALM      30.04S
Sussex         CLOUDY    35  35 100 CALM      30.02F FOG
Andover          N/A     34  34 100 CALM      30.02F
Trenton        CLOUDY    41  38  89 CALM      30.03S
Millville      MOCLDY    39  37  92 NW3       30.04F
Atlantic City  CLEAR     37  33  85 NW5       30.03F WCI  33
Wrightstown    CLOUDY    37  35  92 CALM      30.00F
Toms River     MOCLDY    35  35 100 NW3       30.04S
Belmar         CLOUDY    39  37  92 NW3       30.04S
$$

PAZ047>061-062-071-190500-
EASTERN PENNSYLVANIA

CITY           SKY/WX    TMP DP  RH WIND       PRES   REMARKS
Philadelphia   CLOUDY    45  38  76 NW5       30.04F
Allentown      CLOUDY    42  38  85 CALM      30.03S
Scranton       FOG       37  37 100 CALM      30.01S VSB 3/4
$$

CTZ002-004>006-009-010-012-RIZ004-006-007-MAZ004-011-015-190500-
SOUTHERN NEW ENGLAND
 IN CT

CITY           SKY/WX    TMP DP  RH WIND       PRES   REMARKS
Bradley INTL   CLOUDY    34  33  96 N5        30.02S WCI  30
Hartford       CLOUDY    36  33  89 N6        30.03S WCI  31
Danbury        CLOUDY    35  34  96 CALM      30.02F FOG
Wtrbury/Oxford CLOUDY    36  30  80 N5        30.01F WCI  32
Bridgeport     CLOUDY    40  35  83 N6        30.03R
Meriden        CLOUDY    37  33  85 NW6       30.03R WCI  32
New Haven      CLOUDY    37  35  92 N8        30.02R WCI  31
Chester        FOG       36  36 100 NW7       30.01R VSB 3/4 WCI  30
Groton         CLOUDY    37  35  92 N9        30.01R WCI  30
Wilimantic     CLOUDY    37  35  92 NW5       30.03R WCI  33

 IN RI

CITY           SKY/WX    TMP DP  RH WIND       PRES   REMARKS
Providence     CLOUDY    35  33  92 N9        30.01R FOG     WCI  28
Block Island   NOT AVBL
Westerly       CLOUDY    38  34  85 N6        30.00S WCI  33
 IN MA

CITY           SKY/WX    TMP DP  RH WIND       PRES   REMARKS
Boston         CLOUDY    33  32  96 NW13      30.03R WCI  24
Worcester      FOG       30  29  96 N6        29.98R VSB 3/4 WCI  24
Westfield      CLOUDY    33  33 100 E3        30.00F
Provincetown   MOCLDY    39  36  87 E9        29.99F WCI  33
Nantucket      CLOUDY    41  39  93 NE7       29.95F
$$

ANZ330-335-338-340-345-350-353-355-190500-
COASTAL MARINE OBSERVATIONS


STATION/POSITION TIME  SKY/WX   TEMP    WIND        PRES    VSBY  WAVE
                                AIR SEA DIR/SP/G                  HT/PER
                 (UTC)          (F)     (DEG/KT/KT) (MB)    (MI)  (FT/S)
NY HARB ENTRANCE 0250            41 44  360/ 10/ 12 1016.2          4/ 7
20 S FIRE ISLAND 0350            41 45   10/ 12/ 14 1015.8          6/ 8
GREAT SOUTH BAY  NOT AVBL
23 SSW MONTAUK P 0250            42 47   30/ 16/ 17 1015.2          7/ 8
15 E BARNEGAT LI 0330               48                N/A           5/ 8
HUDSON CANYON    0250            47 51              1014.0          7/ 7
KINGS POINT      0336            39 39              1016.8
EXECUTION ROCKS  0345            40     320/  4/  4   N/A
CENTRAL LI SOUND 0300            38     360/  8/ 10   N/A           1/ 2
EASTERN LI SOUND NOT AVBL
ROBBINS REEF     0336            40     340/  6/  8 1017.2
$$


>>>>>>>>>>>>>>>>>>>>>>>>>>>> KEY <<<<<<<<<<<<<<<<<<<<<<<<<<<
>                                                          <
>     SKY/WX - Sky Condition/Present Weather               <
>     TMP    - Temperature in Fahrenheit                   <
>     DP     - Dew Point in Fahrenheit                     <
>     RH     - Relative Humidity in Percent                <
>     WIND   - Direction (from) and Speed in MPH           <
>     PRES   - Mean Sea Level Pressure (inches of Hg)      <
>     WCI    - Wind Chill Index                            <
>     VSB    - VISIBILITY IN MILES                         <
>     HX     - HEAT INDEX                                  <
>     TC     - TEMPERATURE IN CELSIUS                      <
>     VRB    - VARIABLE WIND DIRECTION                     <
>                                                          <
>>>>>>>>>>>>>>>>>>>>>>>>>>>> KEY <<<<<<<<<<<<<<<<<<<<<<<<<<<




USA.gov is the U.S. government's official web portal to all federal, state and local government web resources and services.